HISPASAT 30W-6

Last updated on Thu Nov 21 2024 00:02:43 GMT+0000 (Coordinated Universal Time)

1 43228U 18023A 24324.36019562 -.00000214 00000+0 00000+0 0 9996 2 43228 0.0502 44.9684 0002468 211.5666 262.0365 1.00268474 24642
UTC large
Height (km)
Speed (km/s)
/
Latitude / Longitude
Inclination (degrees)
Orbital Period (minutes)
Azimuth
Elevation
Range (km)
Doppler Factor

Next 0 passes for location: London (51.5072 / 0.1276)

Sorry there are no passes over London.